Location: Brno
(49.2000°N, 16.6333°E)
Time: 10:53:24
(UTC+01:00)

ISS - Pass Details

Date: 01 February 2019
Orbit: 403 x 411 km, 51.6° (Epoch: 18 February)

Event Time Altitude Azimuth Distance (km) Brightness Sun altitude
Rises 17:19:15 0° 266° (W) 2,330 1.9 -5.3°
Reaches altitude 10° 17:21:21 10° 270° (W) 1,472 0.4 -5.6°
Maximum altitude 17:24:36 59° 351° (N) 478 -3.5 -6.1°
Drops below altitude 10° 17:27:54 10° 72° (ENE) 1,479 -1.7 -6.6°
Enters shadow 17:28:07 - 73° (ENE) 1,570 -1.6 -6.7°
